• In Portugal
  • List of Countries
  • For 7 days
  • Water Temperature
  • Satellite Maps
  • Weather Map
  • Weather Widgets
  • user-avatar
    Login

    Hourly Weather Mandalay

    Today, 19 February, Monday

    Time Temperature Precipitation Wind Pressure Humidity
    00:00 +24°C° 0 mm 1 mps 752 mmHg 31%
    01:00 +23°C° 0 mm 1 mps 752 mmHg 32%
    02:00 +23°C° 0 mm 1 mps 752 mmHg 33%
    03:00 +22°C° 0 mm 1 mps 752 mmHg 34%
    04:00 +22°C° 0 mm 1 mps 752 mmHg 35%
    05:00 +21°C° 0 mm 1 mps 752 mmHg 36%
    06:00 +21°C° 0 mm 1 mps 753 mmHg 34%
    07:00 +24°C° 0 mm 1 mps 753 mmHg 31%
    08:00 +27°C° 0 mm 1 mps 753 mmHg 27%
    09:00 +29°C° 0 mm 1 mps 754 mmHg 24%
    10:00 +31°C° 0 mm 1 mps 753 mmHg 21%
    11:00 +32°C° 0 mm 2 mps 753 mmHg 19%
    12:00 +35°C° 0 mm 2 mps 753 mmHg 16%
    13:00 +35°C° 0 mm 2 mps 752 mmHg 16%
    14:00 +36°C° 0 mm 3 mps 751 mmHg 15%
    15:00 +36°C° 0 mm 3 mps 750 mmHg 15%
    16:00 +34°C° 0 mm 2 mps 751 mmHg 17%
    17:00 +30°C° 0 mm 1 mps 751 mmHg 20%
    18:00 +28°C° 0 mm 1 mps 751 mmHg 23%
    19:00 +27°C° 0 mm 1 mps 751 mmHg 24%
    20:00 +26°C° 0 mm 1 mps 752 mmHg 25%
    21:00 +25°C° 0 mm 1 mps 752 mmHg 25%
    22:00 +25°C° 0 mm 1 mps 752 mmHg 26%
    23:00 +24°C° 0 mm 1 mps 752 mmHg 26%

    Tomorrow, 20 February, Tuesday

    Time Temperature Precipitation Wind Pressure Humidity
    00:00 +24°C° 0 mm 1 mps 752 mmHg 26%
    01:00 +24°C° 0 mm 1 mps 752 mmHg 27%
    02:00 +23°C° 0 mm 1 mps 752 mmHg 27%
    03:00 +23°C° 0 mm 1 mps 752 mmHg 28%
    04:00 +22°C° 0 mm 1 mps 752 mmHg 28%
    05:00 +22°C° 0 mm 1 mps 753 mmHg 29%
    06:00 +21°C° 0 mm 1 mps 753 mmHg 30%
    07:00 +24°C° 0 mm 1 mps 753 mmHg 27%
    08:00 +27°C° 0 mm 1 mps 754 mmHg 24%
    09:00 +30°C° 0 mm 1 mps 754 mmHg 22%
    10:00 +31°C° 0 mm 1 mps 753 mmHg 20%
    11:00 +33°C° 0 mm 1 mps 753 mmHg 18%
    12:00 +35°C° 0 mm 1 mps 752 mmHg 17%
    13:00 +35°C° 0 mm 1 mps 751 mmHg 16%
    14:00 +35°C° 0 mm 1 mps 750 mmHg 15%
    15:00 +36°C° 0 mm 2 mps 749 mmHg 15%
    16:00 +33°C° 0 mm 1 mps 750 mmHg 17%
    17:00 +31°C° 0 mm 1 mps 750 mmHg 20%
    18:00 +29°C° 0 mm 1 mps 750 mmHg 23%
    19:00 +28°C° 0 mm 1 mps 750 mmHg 23%
    20:00 +27°C° 0 mm 1 mps 751 mmHg 24%
    21:00 +26°C° 0 mm 1 mps 751 mmHg 25%
    22:00 +25°C° 0 mm 1 mps 751 mmHg 26%
    23:00 +25°C° 0 mm 1 mps 751 mmHg 26%

    Day after tomorrow, 21 February, Wednesday

    Time Temperature Precipitation Wind Pressure Humidity
    00:00 +24°C° 0 mm 1 mps 751 mmHg 26%
    01:00 +24°C° 0 mm 1 mps 751 mmHg 27%
    02:00 +24°C° 0 mm 1 mps 750 mmHg 27%
    03:00 +23°C° 0 mm 1 mps 750 mmHg 28%
    04:00 +23°C° 0 mm 1 mps 750 mmHg 28%
    05:00 +22°C° 0 mm 1 mps 750 mmHg 29%
    06:00 +22°C° 0 mm 1 mps 751 mmHg 30%
    07:00 +25°C° 0 mm 1 mps 751 mmHg 27%
    08:00 +27°C° 0 mm 1 mps 752 mmHg 25%
    09:00 +28°C° 0 mm 0 mps 753 mmHg 22%
    10:00 +32°C° 0 mm 1 mps 752 mmHg 20%
    11:00 +33°C° 0 mm 1 mps 751 mmHg 17%
    12:00 +35°C° 0 mm 1 mps 751 mmHg 15%
    13:00 +36°C° 0 mm 2 mps 750 mmHg 14%
    14:00 +36°C° 0 mm 2 mps 749 mmHg 14%
    15:00 +36°C° 0 mm 2 mps 748 mmHg 13%
    16:00 +34°C° 0 mm 2 mps 748 mmHg 15%
    17:00 +31°C° 0 mm 1 mps 748 mmHg 17%
    18:00 +29°C° 0 mm 1 mps 749 mmHg 20%
    19:00 +28°C° 0 mm 1 mps 749 mmHg 20%
    20:00 +27°C° 0 mm 1 mps 750 mmHg 21%
    21:00 +26°C° 0 mm 1 mps 750 mmHg 21%
    22:00 +26°C° 0 mm 1 mps 750 mmHg 21%
    23:00 +25°C° 0 mm 1 mps 750 mmHg 21%

    22 February, Thursday

    Time Temperature Precipitation Wind Pressure Humidity
    00:00 +25°C° 0 mm 1 mps 750 mmHg 22%
    01:00 +24°C° 0 mm 1 mps 750 mmHg 22%
    02:00 +24°C° 0 mm 1 mps 750 mmHg 23%
    03:00 +23°C° 0 mm 1 mps 750 mmHg 24%
    04:00 +23°C° 0 mm 1 mps 750 mmHg 25%
    05:00 +22°C° 0 mm 1 mps 751 mmHg 26%
    06:00 +22°C° 0 mm 1 mps 751 mmHg 27%
    07:00 +25°C° 0 mm 1 mps 752 mmHg 25%
    08:00 +27°C° 0 mm 1 mps 752 mmHg 23%
    09:00 +30°C° 0 mm 1 mps 753 mmHg 21%
    10:00 +32°C° 0 mm 1 mps 752 mmHg 19%
    11:00 +34°C° 0 mm 1 mps 752 mmHg 18%
    12:00 +36°C° 0 mm 1 mps 751 mmHg 16%
    13:00 +36°C° 0 mm 1 mps 750 mmHg 15%
    14:00 +36°C° 0 mm 1 mps 749 mmHg 14%
    15:00 +36°C° 0 mm 1 mps 748 mmHg 14%
    16:00 +34°C° 0 mm 1 mps 749 mmHg 16%
    17:00 +32°C° 0 mm 1 mps 749 mmHg 18%
    18:00 +29°C° 0 mm 1 mps 749 mmHg 20%
    19:00 +28°C° 0 mm 1 mps 750 mmHg 21%
    20:00 +28°C° 0 mm 1 mps 751 mmHg 22%
    21:00 +27°C° 0 mm 1 mps 751 mmHg 22%
    22:00 +26°C° 0 mm 1 mps 751 mmHg 23%
    23:00 +26°C° 0 mm 1 mps 751 mmHg 23%

    23 February, Friday

    Time Temperature Precipitation Wind Pressure Humidity
    00:00 +25°C° 0 mm 1 mps 751 mmHg 23%
    01:00 +25°C° 0 mm 1 mps 751 mmHg 23%
    02:00 +24°C° 0 mm 1 mps 751 mmHg 23%
    03:00 +24°C° 0 mm 1 mps 751 mmHg 23%
    04:00 +23°C° 0 mm 1 mps 751 mmHg 24%
    05:00 +23°C° 0 mm 1 mps 752 mmHg 24%
    06:00 +23°C° 0 mm 1 mps 752 mmHg 25%
    07:00 +25°C° 0 mm 1 mps 752 mmHg 23%
    08:00 +28°C° 0 mm 1 mps 753 mmHg 21%
    09:00 +29°C° 0 mm 0 mps 754 mmHg 18%
    10:00 +33°C° 0 mm 1 mps 753 mmHg 17%
    11:00 +34°C° 0 mm 1 mps 752 mmHg 16%
    12:00 +36°C° 0 mm 1 mps 752 mmHg 14%
    13:00 +37°C° 0 mm 2 mps 751 mmHg 14%
    14:00 +37°C° 0 mm 2 mps 750 mmHg 14%
    15:00 +37°C° 0 mm 2 mps 749 mmHg 13%
    16:00 +35°C° 0 mm 2 mps 750 mmHg 15%
    17:00 +32°C° 0 mm 1 mps 750 mmHg 17%
    18:00 +30°C° 0 mm 1 mps 750 mmHg 20%
    19:00 +29°C° 0 mm 1 mps 751 mmHg 20%
    20:00 +28°C° 0 mm 1 mps 751 mmHg 21%
    21:00 +27°C° 0 mm 1 mps 752 mmHg 21%
    22:00 +27°C° 0 mm 1 mps 752 mmHg 22%
    23:00 +26°C° 0 mm 1 mps 752 mmHg 22%

    24 February, Saturday

    Time Temperature Precipitation Wind Pressure Humidity
    00:00 +26°C° 0 mm 1 mps 752 mmHg 22%
    01:00 +25°C° 0 mm 1 mps 752 mmHg 23%
    02:00 +25°C° 0 mm 1 mps 752 mmHg 23%
    03:00 +24°C° 0 mm 1 mps 752 mmHg 24%
    04:00 +24°C° 0 mm 1 mps 753 mmHg 25%
    05:00 +23°C° 0 mm 1 mps 753 mmHg 27%
    06:00 +23°C° 0 mm 1 mps 754 mmHg 28%
    07:00 +26°C° 0 mm 1 mps 754 mmHg 25%
    08:00 +28°C° 0 mm 1 mps 755 mmHg 23%
    09:00 +31°C° 0 mm 1 mps 755 mmHg 21%
    10:00 +33°C° 0 mm 1 mps 754 mmHg 19%
    11:00 +35°C° 0 mm 1 mps 754 mmHg 17%
    12:00 +36°C° 0 mm 1 mps 753 mmHg 16%
    13:00 +36°C° 0 mm 1 mps 752 mmHg 16%
    14:00 +37°C° 0 mm 2 mps 752 mmHg 15%
    15:00 +38°C° 0 mm 2 mps 751 mmHg 15%
    16:00 +34°C° 0 mm 1 mps 751 mmHg 17%
    17:00 +32°C° 0 mm 1 mps 751 mmHg 20%
    18:00 +30°C° 0 mm 1 mps 751 mmHg 22%
    19:00 +29°C° 0 mm 1 mps 752 mmHg 23%
    20:00 +28°C° 0 mm 1 mps 752 mmHg 24%
    21:00 +28°C° 0 mm 1 mps 753 mmHg 25%
    22:00 +27°C° 0 mm 1 mps 753 mmHg 26%
    23:00 +27°C° 0 mm 1 mps 753 mmHg 26%
    Show more